Year,Month,Day,Hour,Minute,Value (Times are PST for insolation in W/m^2)
2020,07,15,00,00,0.00
2020,07,15,00,01,0.00
2020,07,15,00,02,0.00
2020,07,15,00,03,0.00
2020,07,15,00,04,0.00
2020,07,15,00,05,0.00
2020,07,15,00,06,0.00
2020,07,15,00,07,0.00
2020,07,15,00,08,0.00
2020,07,15,00,09,0.00
2020,07,15,00,10,0.00
2020,07,15,00,11,0.00
2020,07,15,00,12,0.00
2020,07,15,00,13,0.00
2020,07,15,00,14,0.00
2020,07,15,00,15,0.00
2020,07,15,00,16,0.00
2020,07,15,00,17,0.00
2020,07,15,00,18,0.00
2020,07,15,00,19,0.00
2020,07,15,00,20,0.00
2020,07,15,00,21,0.00
2020,07,15,00,22,0.00
2020,07,15,00,23,0.00
2020,07,15,00,24,0.00
2020,07,15,00,25,0.00
2020,07,15,00,26,0.00
2020,07,15,00,27,0.00
2020,07,15,00,28,0.00
2020,07,15,00,29,0.00
2020,07,15,00,30,0.00
2020,07,15,00,31,0.00
2020,07,15,00,32,0.00
2020,07,15,00,33,0.00
2020,07,15,00,34,0.00
2020,07,15,00,35,0.00
2020,07,15,00,36,0.00
2020,07,15,00,37,0.00
2020,07,15,00,38,0.00
2020,07,15,00,39,0.00
2020,07,15,00,40,0.00
2020,07,15,00,41,0.00
2020,07,15,00,42,0.00
2020,07,15,00,43,0.00
2020,07,15,00,44,0.00
2020,07,15,00,45,0.00
2020,07,15,00,46,0.00
2020,07,15,00,47,0.00
2020,07,15,00,48,0.00
2020,07,15,00,49,0.00
2020,07,15,00,50,0.00
2020,07,15,00,51,0.00
2020,07,15,00,52,0.00
2020,07,15,00,53,0.00
2020,07,15,00,54,0.00
2020,07,15,00,55,0.00
2020,07,15,00,56,0.00
2020,07,15,00,57,0.00
2020,07,15,00,58,0.00
2020,07,15,00,59,0.00
2020,07,15,01,00,0.00
2020,07,15,01,01,0.00
2020,07,15,01,02,0.00
2020,07,15,01,03,0.00
2020,07,15,01,04,0.00
2020,07,15,01,05,0.00
2020,07,15,01,06,0.00
2020,07,15,01,07,0.00
2020,07,15,01,08,0.00
2020,07,15,01,09,0.00
2020,07,15,01,10,0.00
2020,07,15,01,11,0.00
2020,07,15,01,12,0.00
2020,07,15,01,13,0.00
2020,07,15,01,14,0.00
2020,07,15,01,15,0.00
2020,07,15,01,16,0.00
2020,07,15,01,17,0.00
2020,07,15,01,18,0.00
2020,07,15,01,19,0.00
2020,07,15,01,20,0.00
2020,07,15,01,21,0.00
2020,07,15,01,22,0.00
2020,07,15,01,23,0.00
2020,07,15,01,24,0.00
2020,07,15,01,25,0.00
2020,07,15,01,26,0.00
2020,07,15,01,27,0.00
2020,07,15,01,28,0.00
2020,07,15,01,29,0.00
2020,07,15,01,30,0.00
2020,07,15,01,31,0.00
2020,07,15,01,32,0.00
2020,07,15,01,33,0.00
2020,07,15,01,34,0.00
2020,07,15,01,35,0.00
2020,07,15,01,36,0.00
2020,07,15,01,37,0.00
2020,07,15,01,38,0.00
2020,07,15,01,39,0.00
2020,07,15,01,40,0.00
2020,07,15,01,41,0.00
2020,07,15,01,42,0.00
2020,07,15,01,43,0.00
2020,07,15,01,44,0.00
2020,07,15,01,45,0.00
2020,07,15,01,46,0.00
2020,07,15,01,47,0.00
2020,07,15,01,48,0.00
2020,07,15,01,49,0.00
2020,07,15,01,50,0.00
2020,07,15,01,51,0.00
2020,07,15,01,52,0.00
2020,07,15,01,53,0.00
2020,07,15,01,54,0.00
2020,07,15,01,55,0.00
2020,07,15,01,56,0.00
2020,07,15,01,57,0.00
2020,07,15,01,58,0.00
2020,07,15,01,59,0.00
2020,07,15,02,00,0.00
2020,07,15,02,01,0.00
2020,07,15,02,02,0.00
2020,07,15,02,03,0.00
2020,07,15,02,04,0.00
2020,07,15,02,05,0.00
2020,07,15,02,06,0.00
2020,07,15,02,07,0.00
2020,07,15,02,08,0.00
2020,07,15,02,09,0.00
2020,07,15,02,10,0.00
2020,07,15,02,11,0.00
2020,07,15,02,12,0.00
2020,07,15,02,13,0.00
2020,07,15,02,14,0.00
2020,07,15,02,15,0.00
2020,07,15,02,16,0.00
2020,07,15,02,17,0.00
2020,07,15,02,18,0.00
2020,07,15,02,19,0.00
2020,07,15,02,20,0.00
2020,07,15,02,21,0.00
2020,07,15,02,22,0.00
2020,07,15,02,23,0.00
2020,07,15,02,24,0.00
2020,07,15,02,25,0.00
2020,07,15,02,26,0.00
2020,07,15,02,27,0.00
2020,07,15,02,28,0.00
2020,07,15,02,29,0.00
2020,07,15,02,30,0.00
2020,07,15,02,31,0.00
2020,07,15,02,32,0.00
2020,07,15,02,33,0.00
2020,07,15,02,34,0.00
2020,07,15,02,35,0.00
2020,07,15,02,36,0.00
2020,07,15,02,37,0.00
2020,07,15,02,38,0.00
2020,07,15,02,39,0.00
2020,07,15,02,40,0.00
2020,07,15,02,41,0.00
2020,07,15,02,42,0.00
2020,07,15,02,43,0.00
2020,07,15,02,44,0.00
2020,07,15,02,45,0.00
2020,07,15,02,46,0.00
2020,07,15,02,47,0.00
2020,07,15,02,48,0.00
2020,07,15,02,49,0.00
2020,07,15,02,50,0.00
2020,07,15,02,51,0.00
2020,07,15,02,52,0.00
2020,07,15,02,53,0.00
2020,07,15,02,54,0.00
2020,07,15,02,55,0.00
2020,07,15,02,56,0.00
2020,07,15,02,57,0.00
2020,07,15,02,58,0.00
2020,07,15,02,59,0.00
2020,07,15,03,00,0.00
2020,07,15,03,01,0.00
2020,07,15,03,02,0.00
2020,07,15,03,03,0.00
2020,07,15,03,04,0.00
2020,07,15,03,05,0.00
2020,07,15,03,06,0.00
2020,07,15,03,07,0.00
2020,07,15,03,08,0.00
2020,07,15,03,09,0.00
2020,07,15,03,10,0.00
2020,07,15,03,11,0.00
2020,07,15,03,12,0.00
2020,07,15,03,13,0.00
2020,07,15,03,14,0.00
2020,07,15,03,15,0.00
2020,07,15,03,16,0.00
2020,07,15,03,17,0.00
2020,07,15,03,18,0.00
2020,07,15,03,19,0.00
2020,07,15,03,20,0.00
2020,07,15,03,21,0.00
2020,07,15,03,22,0.00
2020,07,15,03,23,0.00
2020,07,15,03,24,0.00
2020,07,15,03,25,0.00
2020,07,15,03,26,0.00
2020,07,15,03,27,0.00
2020,07,15,03,28,0.00
2020,07,15,03,29,0.00
2020,07,15,03,30,0.00
2020,07,15,03,31,0.00
2020,07,15,03,32,0.00
2020,07,15,03,33,0.00
2020,07,15,03,34,0.00
2020,07,15,03,35,0.00
2020,07,15,03,36,0.00
2020,07,15,03,37,0.00
2020,07,15,03,38,0.00
2020,07,15,03,39,0.00
2020,07,15,03,40,0.00
2020,07,15,03,41,0.00
2020,07,15,03,42,0.00
2020,07,15,03,43,0.00
2020,07,15,03,44,0.00
2020,07,15,03,45,0.00
2020,07,15,03,46,0.00
2020,07,15,03,47,0.00
2020,07,15,03,48,0.00
2020,07,15,03,49,0.00
2020,07,15,03,50,0.00
2020,07,15,03,51,0.00
2020,07,15,03,52,0.00
2020,07,15,03,53,0.00
2020,07,15,03,54,0.00
2020,07,15,03,55,0.00
2020,07,15,03,56,0.00
2020,07,15,03,57,0.00
2020,07,15,03,58,0.00
2020,07,15,03,59,0.00
2020,07,15,04,00,0.00
2020,07,15,04,01,0.00
2020,07,15,04,02,0.00
2020,07,15,04,03,0.00
2020,07,15,04,04,0.00
2020,07,15,04,05,0.00
2020,07,15,04,06,0.00
2020,07,15,04,07,0.00
2020,07,15,04,08,0.00
2020,07,15,04,09,0.00
2020,07,15,04,10,0.00
2020,07,15,04,11,0.00
2020,07,15,04,12,0.00
2020,07,15,04,13,0.00
2020,07,15,04,14,0.00
2020,07,15,04,15,0.00
2020,07,15,04,16,0.00
2020,07,15,04,17,0.00
2020,07,15,04,18,0.00
2020,07,15,04,19,0.00
2020,07,15,04,20,0.00
2020,07,15,04,21,0.00
2020,07,15,04,22,0.00
2020,07,15,04,23,0.00
2020,07,15,04,24,0.00
2020,07,15,04,25,0.00
2020,07,15,04,26,0.00
2020,07,15,04,27,0.00
2020,07,15,04,28,0.00
2020,07,15,04,29,0.00
2020,07,15,04,30,0.00
2020,07,15,04,31,0.00
2020,07,15,04,32,0.00
2020,07,15,04,33,0.00
2020,07,15,04,34,0.00
2020,07,15,04,35,0.00
2020,07,15,04,36,0.00
2020,07,15,04,37,0.00
2020,07,15,04,38,0.00
2020,07,15,04,39,0.00
2020,07,15,04,40,0.00
2020,07,15,04,41,0.00
2020,07,15,04,42,0.00
2020,07,15,04,43,0.00
2020,07,15,04,44,0.00
2020,07,15,04,45,0.00
2020,07,15,04,46,0.00
2020,07,15,04,47,0.00
2020,07,15,04,48,0.00
2020,07,15,04,49,0.00
2020,07,15,04,50,0.00
2020,07,15,04,51,0.00
2020,07,15,04,52,0.00
2020,07,15,04,53,0.00
2020,07,15,04,54,0.00
2020,07,15,04,55,0.00
2020,07,15,04,56,0.00
2020,07,15,04,57,0.00
2020,07,15,04,58,0.00
2020,07,15,04,59,0.00
2020,07,15,05,00,0.00
2020,07,15,05,01,0.00
2020,07,15,05,02,0.00
2020,07,15,05,03,0.00
2020,07,15,05,04,0.00
2020,07,15,05,05,0.00
2020,07,15,05,06,0.00
2020,07,15,05,07,0.00
2020,07,15,05,08,0.00
2020,07,15,05,09,0.00
2020,07,15,05,10,0.00
2020,07,15,05,11,0.00
2020,07,15,05,12,0.00
2020,07,15,05,13,0.00
2020,07,15,05,14,0.00
2020,07,15,05,15,0.00
2020,07,15,05,16,0.00
2020,07,15,05,17,0.00
2020,07,15,05,18,0.00
2020,07,15,05,19,0.00
2020,07,15,05,20,0.00
2020,07,15,05,21,0.00
2020,07,15,05,22,0.00
2020,07,15,05,23,0.00
2020,07,15,05,24,0.00
2020,07,15,05,25,0.00
2020,07,15,05,26,0.00
2020,07,15,05,27,0.00
2020,07,15,05,28,0.00
2020,07,15,05,29,0.00
2020,07,15,05,30,0.00
2020,07,15,05,31,0.00
2020,07,15,05,32,0.00
2020,07,15,05,33,0.00
2020,07,15,05,34,0.00
2020,07,15,05,35,0.00
2020,07,15,05,36,0.70
2020,07,15,05,37,5.00
2020,07,15,05,38,5.00
2020,07,15,05,39,5.00
2020,07,15,05,40,5.00
2020,07,15,05,41,5.00
2020,07,15,05,42,6.80
2020,07,15,05,43,7.00
2020,07,15,05,44,7.00
2020,07,15,05,45,7.70
2020,07,15,05,46,9.00
2020,07,15,05,47,9.00
2020,07,15,05,48,9.00
2020,07,15,05,49,9.00
2020,07,15,05,50,11.00
2020,07,15,05,51,11.00
2020,07,15,05,52,11.00
2020,07,15,05,53,11.00
2020,07,15,05,54,11.00
2020,07,15,05,55,11.00
2020,07,15,05,56,11.90
2020,07,15,05,57,12.00
2020,07,15,05,58,12.00
2020,07,15,05,59,12.70
2020,07,15,06,00,14.00
2020,07,15,06,01,14.00
2020,07,15,06,02,14.00
2020,07,15,06,03,15.70
2020,07,15,06,04,16.20
2020,07,15,06,05,18.00
2020,07,15,06,06,18.00
2020,07,15,06,07,18.50
2020,07,15,06,08,19.00
2020,07,15,06,09,19.00
2020,07,15,06,10,20.80
2020,07,15,06,11,21.20
2020,07,15,06,12,23.00
2020,07,15,06,13,23.70
2020,07,15,06,14,25.00
2020,07,15,06,15,25.00
2020,07,15,06,16,25.00
2020,07,15,06,17,23.20
2020,07,15,06,18,23.20
2020,07,15,06,19,25.70
2020,07,15,06,20,29.50
2020,07,15,06,21,32.50
2020,07,15,06,22,35.40
2020,07,15,06,23,39.20
2020,07,15,06,24,40.00
2020,07,15,06,25,44.10
2020,07,15,06,26,45.10
2020,07,15,06,27,42.00
2020,07,15,06,28,45.40
2020,07,15,06,29,49.00
2020,07,15,06,30,52.70
2020,07,15,06,31,55.70
2020,07,15,06,32,58.00
2020,07,15,06,33,58.40
2020,07,15,06,34,60.00
2020,07,15,06,35,61.00
2020,07,15,06,36,63.80
2020,07,15,06,37,68.00
2020,07,15,06,38,53.70
2020,07,15,06,39,51.30
2020,07,15,06,40,55.50
2020,07,15,06,41,67.00
2020,07,15,06,42,81.10
2020,07,15,06,43,84.90
2020,07,15,06,44,86.00
2020,07,15,06,45,87.80
2020,07,15,06,46,91.30
2020,07,15,06,47,94.00
2020,07,15,06,48,97.40
2020,07,15,06,49,99.90
2020,07,15,06,50,103.80
2020,07,15,06,51,106.50
2020,07,15,06,52,108.70
2020,07,15,06,53,113.10
2020,07,15,06,54,114.90
2020,07,15,06,55,119.10
2020,07,15,06,56,122.00
2020,07,15,06,57,124.30
2020,07,15,06,58,127.20
2020,07,15,06,59,131.40
2020,07,15,07,00,134.30
2020,07,15,07,01,137.90
2020,07,15,07,02,141.00
2020,07,15,07,03,143.40
2020,07,15,07,04,147.20
2020,07,15,07,05,150.20
2020,07,15,07,06,154.40
2020,07,15,07,07,156.40
2020,07,15,07,08,160.50
2020,07,15,07,09,163.10
2020,07,15,07,10,166.00
2020,07,15,07,11,168.30
2020,07,15,07,12,169.00
2020,07,15,07,13,173.40
2020,07,15,07,14,178.10
2020,07,15,07,15,180.40
2020,07,15,07,16,185.40
2020,07,15,07,17,188.90
2020,07,15,07,18,193.90
2020,07,15,07,19,195.00
2020,07,15,07,20,192.30
2020,07,15,07,21,188.60
2020,07,15,07,22,194.00
2020,07,15,07,23,197.70
2020,07,15,07,24,199.50
2020,07,15,07,25,202.50
2020,07,15,07,26,205.50
2020,07,15,07,27,208.60
2020,07,15,07,28,213.30
2020,07,15,07,29,217.00
2020,07,15,07,30,221.90
2020,07,15,07,31,226.00
2020,07,15,07,32,230.10
2020,07,15,07,33,233.50
2020,07,15,07,34,238.40
2020,07,15,07,35,243.10
2020,07,15,07,36,245.60
2020,07,15,07,37,250.40
2020,07,15,07,38,254.10
2020,07,15,07,39,258.90
2020,07,15,07,40,263.00
2020,07,15,07,41,264.90
2020,07,15,07,42,267.60
2020,07,15,07,43,271.30
2020,07,15,07,44,273.50
2020,07,15,07,45,277.00
2020,07,15,07,46,278.60
2020,07,15,07,47,282.00
2020,07,15,07,48,284.80
2020,07,15,07,49,287.30
2020,07,15,07,50,291.00
2020,07,15,07,51,294.00
2020,07,15,07,52,295.60
2020,07,15,07,53,300.10
2020,07,15,07,54,305.00
2020,07,15,07,55,308.70
2020,07,15,07,56,313.00
2020,07,15,07,57,314.80
2020,07,15,07,58,320.70
2020,07,15,07,59,323.60
2020,07,15,08,00,328.10
2020,07,15,08,01,334.40
2020,07,15,08,02,342.00
2020,07,15,08,03,346.70
2020,07,15,08,04,352.70
2020,07,15,08,05,357.60
2020,07,15,08,06,367.30
2020,07,15,08,07,378.00
2020,07,15,08,08,386.40
2020,07,15,08,09,393.30
2020,07,15,08,10,389.90
2020,07,15,08,11,376.90
2020,07,15,08,12,386.90
2020,07,15,08,13,382.90
2020,07,15,08,14,379.10
2020,07,15,08,15,376.50
2020,07,15,08,16,376.00
2020,07,15,08,17,380.10
2020,07,15,08,18,381.50
2020,07,15,08,19,383.70
2020,07,15,08,20,386.00
2020,07,15,08,21,387.60
2020,07,15,08,22,391.00
2020,07,15,08,23,393.70
2020,07,15,08,24,396.30
2020,07,15,08,25,399.40
2020,07,15,08,26,402.10
2020,07,15,08,27,405.00
2020,07,15,08,28,408.50
2020,07,15,08,29,410.70
2020,07,15,08,30,411.00
2020,07,15,08,31,417.00
2020,07,15,08,32,418.10
2020,07,15,08,33,423.10
2020,07,15,08,34,426.90
2020,07,15,08,35,429.00
2020,07,15,08,36,432.70
2020,07,15,08,37,435.70
2020,07,15,08,38,439.70
2020,07,15,08,39,445.80
2020,07,15,08,40,449.50
2020,07,15,08,41,452.00
2020,07,15,08,42,457.90
2020,07,15,08,43,466.50
2020,07,15,08,44,472.40
2020,07,15,08,45,480.70
2020,07,15,08,46,475.90
2020,07,15,08,47,467.40
2020,07,15,08,48,486.10
2020,07,15,08,49,489.20
2020,07,15,08,50,485.90
2020,07,15,08,51,480.20
2020,07,15,08,52,474.90
2020,07,15,08,53,463.00
2020,07,15,08,54,481.90
2020,07,15,08,55,476.70
2020,07,15,08,56,472.80
2020,07,15,08,57,491.30
2020,07,15,08,58,492.40
2020,07,15,08,59,496.00
2020,07,15,09,00,494.40
2020,07,15,09,01,492.20
2020,07,15,09,02,495.00
2020,07,15,09,03,494.00
2020,07,15,09,04,490.20
2020,07,15,09,05,491.60
2020,07,15,09,06,507.80
2020,07,15,09,07,486.00
2020,07,15,09,08,459.70
2020,07,15,09,09,517.20
2020,07,15,09,10,512.20
2020,07,15,09,11,512.70
2020,07,15,09,12,524.40
2020,07,15,09,13,520.70
2020,07,15,09,14,525.00
2020,07,15,09,15,520.90
2020,07,15,09,16,523.00
2020,07,15,09,17,522.80
2020,07,15,09,18,523.10
2020,07,15,09,19,524.00
2020,07,15,09,20,525.30
2020,07,15,09,21,536.00
2020,07,15,09,22,538.00
2020,07,15,09,23,545.70
2020,07,15,09,24,556.80
2020,07,15,09,25,556.60
2020,07,15,09,26,555.00
2020,07,15,09,27,560.00
2020,07,15,09,28,567.30
2020,07,15,09,29,575.20
2020,07,15,09,30,582.00
2020,07,15,09,31,583.90
2020,07,15,09,32,585.00
2020,07,15,09,33,586.70
2020,07,15,09,34,586.30
2020,07,15,09,35,594.50
2020,07,15,09,36,596.80
2020,07,15,09,37,598.00
2020,07,15,09,38,601.00
2020,07,15,09,39,604.50
2020,07,15,09,40,605.90
2020,07,15,09,41,608.20
2020,07,15,09,42,610.00
2020,07,15,09,43,610.70
2020,07,15,09,44,612.50
2020,07,15,09,45,614.30
2020,07,15,09,46,616.50
2020,07,15,09,47,620.60
2020,07,15,09,48,622.00
2020,07,15,09,49,622.90
2020,07,15,09,50,626.70
2020,07,15,09,51,629.60
2020,07,15,09,52,632.30
2020,07,15,09,53,635.30
2020,07,15,09,54,639.50
2020,07,15,09,55,642.10
2020,07,15,09,56,643.50
2020,07,15,09,57,645.70
2020,07,15,09,58,648.00
2020,07,15,09,59,649.60
2020,07,15,10,00,653.10
2020,07,15,10,01,655.80
2020,07,15,10,02,657.30
2020,07,15,10,03,659.50
2020,07,15,10,04,661.00
2020,07,15,10,05,663.60
2020,07,15,10,06,666.00
2020,07,15,10,07,669.10
2020,07,15,10,08,670.90
2020,07,15,10,09,675.00
2020,07,15,10,10,675.00
2020,07,15,10,11,676.90
2020,07,15,10,12,682.10
2020,07,15,10,13,685.90
2020,07,15,10,14,687.00
2020,07,15,10,15,688.80
2020,07,15,10,16,691.30
2020,07,15,10,17,694.00
2020,07,15,10,18,694.70
2020,07,15,10,19,696.00
2020,07,15,10,20,698.50
2020,07,15,10,21,700.70
2020,07,15,10,22,702.70
2020,07,15,10,23,703.00
2020,07,15,10,24,703.00
2020,07,15,10,25,703.00
2020,07,15,10,26,703.00
2020,07,15,10,27,711.80
2020,07,15,10,28,718.50
2020,07,15,10,29,721.60
2020,07,15,10,30,728.10
2020,07,15,10,31,727.20
2020,07,15,10,32,719.40
2020,07,15,10,33,715.00
2020,07,15,10,34,715.00
2020,07,15,10,35,698.70
2020,07,15,10,36,703.20
2020,07,15,10,37,691.30
2020,07,15,10,38,712.90
2020,07,15,10,39,721.00
2020,07,15,10,40,722.60
2020,07,15,10,41,728.30
2020,07,15,10,42,740.60
2020,07,15,10,43,746.70
2020,07,15,10,44,748.80
2020,07,15,10,45,747.00
2020,07,15,10,46,748.90
2020,07,15,10,47,753.00
2020,07,15,10,48,756.50
2020,07,15,10,49,758.00
2020,07,15,10,50,760.70
2020,07,15,10,51,763.20
2020,07,15,10,52,765.80
2020,07,15,10,53,767.30
2020,07,15,10,54,767.90
2020,07,15,10,55,770.00
2020,07,15,10,56,772.20
2020,07,15,10,57,774.70
2020,07,15,10,58,775.20
2020,07,15,10,59,777.80
2020,07,15,11,00,780.00
2020,07,15,11,01,782.10
2020,07,15,11,02,785.30
2020,07,15,11,03,786.00
2020,07,15,11,04,787.80
2020,07,15,11,05,791.30
2020,07,15,11,06,792.50
2020,07,15,11,07,792.50
2020,07,15,11,08,795.00
2020,07,15,11,09,796.90
2020,07,15,11,10,799.60
2020,07,15,11,11,808.00
2020,07,15,11,12,831.00
2020,07,15,11,13,861.10
2020,07,15,11,14,902.50
2020,07,15,11,15,928.00
2020,07,15,11,16,928.00
2020,07,15,11,17,697.00
2020,07,15,11,18,623.00
2020,07,15,11,19,722.00
2020,07,15,11,20,722.00
2020,07,15,11,21,722.00
2020,07,15,11,22,722.00
2020,07,15,11,23,722.00
2020,07,15,11,24,722.00
2020,07,15,11,25,722.00
2020,07,15,11,26,840.70
2020,07,15,11,27,846.20
2020,07,15,11,28,882.80
2020,07,15,11,29,881.50
2020,07,15,11,30,882.00
2020,07,15,11,31,881.30
2020,07,15,11,32,881.00
2020,07,15,11,33,876.40
2020,07,15,11,34,869.10
2020,07,15,11,35,859.10
2020,07,15,11,36,855.00
2020,07,15,11,37,853.40
2020,07,15,11,38,853.00
2020,07,15,11,39,853.90
2020,07,15,11,40,853.40
2020,07,15,11,41,855.50
2020,07,15,11,42,852.90
2020,07,15,11,43,852.60
2020,07,15,11,44,854.00
2020,07,15,11,45,855.60
2020,07,15,11,46,857.80
2020,07,15,11,47,857.70
2020,07,15,11,48,857.00
2020,07,15,11,49,860.00
2020,07,15,11,50,860.50
2020,07,15,11,51,863.50
2020,07,15,11,52,858.30
2020,07,15,11,53,850.00
2020,07,15,11,54,845.00
2020,07,15,11,55,855.20
2020,07,15,11,56,871.50
2020,07,15,11,57,887.40
2020,07,15,11,58,884.80
2020,07,15,11,59,886.60
2020,07,15,12,00,860.70
2020,07,15,12,01,872.50
2020,07,15,12,02,882.40
2020,07,15,12,03,846.50
2020,07,15,12,04,825.60
2020,07,15,12,05,861.50
2020,07,15,12,06,922.80
2020,07,15,12,07,920.50
2020,07,15,12,08,884.70
2020,07,15,12,09,909.00
2020,07,15,12,10,877.10
2020,07,15,12,11,870.20
2020,07,15,12,12,914.00
2020,07,15,12,13,719.60
2020,07,15,12,14,664.00
2020,07,15,12,15,416.00
2020,07,15,12,16,416.20
2020,07,15,12,17,433.30
2020,07,15,12,18,435.60
2020,07,15,12,19,384.90
2020,07,15,12,20,345.20
2020,07,15,12,21,367.90
2020,07,15,12,22,427.50
2020,07,15,12,23,473.50
2020,07,15,12,24,502.80
2020,07,15,12,25,459.70
2020,07,15,12,26,439.00
2020,07,15,12,27,439.00
2020,07,15,12,28,414.10
2020,07,15,12,29,441.50
2020,07,15,12,30,482.30
2020,07,15,12,31,432.60
2020,07,15,12,32,418.60
2020,07,15,12,33,455.40
2020,07,15,12,34,462.60
2020,07,15,12,35,432.30
2020,07,15,12,36,388.10
2020,07,15,12,37,362.40
2020,07,15,12,38,353.10
2020,07,15,12,39,358.60
2020,07,15,12,40,354.40
2020,07,15,12,41,325.40
2020,07,15,12,42,318.00
2020,07,15,12,43,318.00
2020,07,15,12,44,318.00
2020,07,15,12,45,327.30
2020,07,15,12,46,344.00
2020,07,15,12,47,349.10
2020,07,15,12,48,360.90
2020,07,15,12,49,371.70
2020,07,15,12,50,363.00
2020,07,15,12,51,358.80
2020,07,15,12,52,369.20
2020,07,15,12,53,411.50
2020,07,15,12,54,477.70
2020,07,15,12,55,519.20
2020,07,15,12,56,485.20
2020,07,15,12,57,423.90
2020,07,15,12,58,406.20
2020,07,15,12,59,359.10
2020,07,15,13,00,307.00
2020,07,15,13,01,289.50
2020,07,15,13,02,294.70
2020,07,15,13,03,301.30
2020,07,15,13,04,342.90
2020,07,15,13,05,320.70
2020,07,15,13,06,324.50
2020,07,15,13,07,316.00
2020,07,15,13,08,342.50
2020,07,15,13,09,359.00
2020,07,15,13,10,359.00
2020,07,15,13,11,359.00
2020,07,15,13,12,360.60
2020,07,15,13,13,356.00
2020,07,15,13,14,352.00
2020,07,15,13,15,415.70
2020,07,15,13,16,455.40
2020,07,15,13,17,382.60
2020,07,15,13,18,323.90
2020,07,15,13,19,342.60
2020,07,15,13,20,372.60
2020,07,15,13,21,406.00
2020,07,15,13,22,518.70
2020,07,15,13,23,625.70
2020,07,15,13,24,640.00
2020,07,15,13,25,689.40
2020,07,15,13,26,1083.40
2020,07,15,13,27,1090.20
2020,07,15,13,28,1122.50
2020,07,15,13,29,1164.80
2020,07,15,13,30,1186.80
2020,07,15,13,31,1203.30
2020,07,15,13,32,1205.80
2020,07,15,13,33,1221.10
2020,07,15,13,34,1226.50
2020,07,15,13,35,1229.50
2020,07,15,13,36,1230.00
2020,07,15,13,37,1234.40
2020,07,15,13,38,1216.40
2020,07,15,13,39,1196.20
2020,07,15,13,40,1190.50
2020,07,15,13,41,1193.80
2020,07,15,13,42,1200.40
2020,07,15,13,43,1202.70
2020,07,15,13,44,1202.00
2020,07,15,13,45,1157.70
2020,07,15,13,46,1175.80
2020,07,15,13,47,1128.00
2020,07,15,13,48,1030.30
2020,07,15,13,49,1020.50
2020,07,15,13,50,1101.40
2020,07,15,13,51,1123.70
2020,07,15,13,52,1120.00
2020,07,15,13,53,1120.00
2020,07,15,13,54,1121.80
2020,07,15,13,55,1104.00
2020,07,15,13,56,1065.00
2020,07,15,13,57,1158.20
2020,07,15,13,58,1206.30
2020,07,15,13,59,1188.90
2020,07,15,14,00,1197.80
2020,07,15,14,01,1164.30
2020,07,15,14,02,1172.40
2020,07,15,14,03,1189.80
2020,07,15,14,04,1203.80
2020,07,15,14,05,1209.00
2020,07,15,14,06,1177.90
2020,07,15,14,07,1157.00
2020,07,15,14,08,1019.20
2020,07,15,14,09,1014.00
2020,07,15,14,10,898.90
2020,07,15,14,11,775.00
2020,07,15,14,12,716.50
2020,07,15,14,13,706.70
2020,07,15,14,14,704.80
2020,07,15,14,15,658.00
2020,07,15,14,16,598.00
2020,07,15,14,17,587.90
2020,07,15,14,18,527.90
2020,07,15,14,19,466.80
2020,07,15,14,20,437.00
2020,07,15,14,21,419.00
2020,07,15,14,22,411.70
2020,07,15,14,23,407.20
2020,07,15,14,24,408.10
2020,07,15,14,25,407.50
2020,07,15,14,26,406.00
2020,07,15,14,27,410.40
2020,07,15,14,28,404.00
2020,07,15,14,29,402.20
2020,07,15,14,30,397.80
2020,07,15,14,31,406.30
2020,07,15,14,32,425.00
2020,07,15,14,33,454.30
2020,07,15,14,34,481.60
2020,07,15,14,35,506.00
2020,07,15,14,36,479.40
2020,07,15,14,37,462.90
2020,07,15,14,38,450.90
2020,07,15,14,39,453.50
2020,07,15,14,40,457.00
2020,07,15,14,41,454.40
2020,07,15,14,42,466.70
2020,07,15,14,43,527.10
2020,07,15,14,44,582.60
2020,07,15,14,45,587.00
2020,07,15,14,46,587.00
2020,07,15,14,47,587.00
2020,07,15,14,48,587.00
2020,07,15,14,49,575.70
2020,07,15,14,50,474.10
2020,07,15,14,51,436.30
2020,07,15,14,52,415.90
2020,07,15,14,53,399.70
2020,07,15,14,54,393.00
2020,07,15,14,55,379.60
2020,07,15,14,56,365.00
2020,07,15,14,57,353.90
2020,07,15,14,58,339.40
2020,07,15,14,59,325.20
2020,07,15,15,00,320.00
2020,07,15,15,01,311.10
2020,07,15,15,02,312.40
2020,07,15,15,03,317.00
2020,07,15,15,04,328.60
2020,07,15,15,05,339.00
2020,07,15,15,06,345.70
2020,07,15,15,07,353.90
2020,07,15,15,08,356.50
2020,07,15,15,09,358.80
2020,07,15,15,10,356.40
2020,07,15,15,11,351.00
2020,07,15,15,12,347.30
2020,07,15,15,13,347.00
2020,07,15,15,14,349.30
2020,07,15,15,15,350.00
2020,07,15,15,16,348.20
2020,07,15,15,17,350.30
2020,07,15,15,18,354.60
2020,07,15,15,19,359.40
2020,07,15,15,20,361.90
2020,07,15,15,21,368.40
2020,07,15,15,22,377.70
2020,07,15,15,23,386.20
2020,07,15,15,24,401.00
2020,07,15,15,25,406.40
2020,07,15,15,26,423.90
2020,07,15,15,27,428.00
2020,07,15,15,28,433.40
2020,07,15,15,29,453.00
2020,07,15,15,30,435.00
2020,07,15,15,31,427.40
2020,07,15,15,32,434.60
2020,07,15,15,33,475.40
2020,07,15,15,34,527.00
2020,07,15,15,35,871.40
2020,07,15,15,36,1128.80
2020,07,15,15,37,1154.00
2020,07,15,15,38,1146.60
2020,07,15,15,39,1145.70
2020,07,15,15,40,1098.10
2020,07,15,15,41,1034.50
2020,07,15,15,42,1020.00
2020,07,15,15,43,1020.00
2020,07,15,15,44,604.20
2020,07,15,15,45,589.10
2020,07,15,15,46,824.00
2020,07,15,15,47,709.60
2020,07,15,15,48,515.00
2020,07,15,15,49,745.20
2020,07,15,15,50,915.70
2020,07,15,15,51,925.00
2020,07,15,15,52,1055.00
2020,07,15,15,53,1055.00
2020,07,15,15,54,1081.90
2020,07,15,15,55,1111.20
2020,07,15,15,56,1102.00
2020,07,15,15,57,1102.00
2020,07,15,15,58,1102.00
2020,07,15,15,59,1102.00
2020,07,15,16,00,1054.60
2020,07,15,16,01,928.30
2020,07,15,16,02,939.70
2020,07,15,16,03,923.00
2020,07,15,16,04,885.70
2020,07,15,16,05,877.00
2020,07,15,16,06,842.60
2020,07,15,16,07,809.00
2020,07,15,16,08,825.30
2020,07,15,16,09,858.00
2020,07,15,16,10,863.00
2020,07,15,16,11,863.00
2020,07,15,16,12,863.00
2020,07,15,16,13,640.00
2020,07,15,16,14,640.00
2020,07,15,16,15,617.20
2020,07,15,16,16,584.00
2020,07,15,16,17,779.80
2020,07,15,16,18,906.90
2020,07,15,16,19,907.50
2020,07,15,16,20,872.00
2020,07,15,16,21,592.00
2020,07,15,16,22,666.60
2020,07,15,16,23,799.50
2020,07,15,16,24,814.00
2020,07,15,16,25,653.80
2020,07,15,16,26,548.40
2020,07,15,16,27,541.00
2020,07,15,16,28,478.30
2020,07,15,16,29,292.30
2020,07,15,16,30,325.60
2020,07,15,16,31,325.40
2020,07,15,16,32,330.60
2020,07,15,16,33,341.00
2020,07,15,16,34,414.50
2020,07,15,16,35,492.00
2020,07,15,16,36,600.90
2020,07,15,16,37,786.00
2020,07,15,16,38,641.80
2020,07,15,16,39,522.20
2020,07,15,16,40,485.10
2020,07,15,16,41,501.30
2020,07,15,16,42,656.00
2020,07,15,16,43,672.70
2020,07,15,16,44,699.40
2020,07,15,16,45,686.70
2020,07,15,16,46,686.70
2020,07,15,16,47,690.80
2020,07,15,16,48,676.30
2020,07,15,16,49,666.10
2020,07,15,16,50,653.50
2020,07,15,16,51,656.50
2020,07,15,16,52,657.00
2020,07,15,16,53,674.00
2020,07,15,16,54,691.10
2020,07,15,16,55,641.20
2020,07,15,16,56,227.00
2020,07,15,16,57,227.00
2020,07,15,16,58,238.60
2020,07,15,16,59,230.20
2020,07,15,17,00,233.60
2020,07,15,17,01,257.70
2020,07,15,17,02,252.10
2020,07,15,17,03,267.60
2020,07,15,17,04,288.40
2020,07,15,17,05,355.30